User: anonymous   Login
Location: White Ridge parking lot
(35.4984°N, 106.8413°W)
Time: 04:15:13
(UTC-06:00)
Language:

UWE-3 - Orbit

View from above orbital plane
View from above orbital plane
View from above satellite
View from above satellite

Ground track
Ground track

The orbit data is extracted from the following two-line orbital elements,

1 39446U 13066AG  19257.87725076 +.00000144 +00000-0 +25580-4 0  9991
2 39446 097.5841 258.2435 0071160 131.4395 229.2959 14.78418686311705
Epoch (UTC): 14 September 2019 21:03:14
Eccentricity: 0.0071160
inclination: 97.5841°
perigee height: 584 km
apogee height: 684 km
right ascension of ascending node: 258.2435°
argument of perigee: 131.4395°
revolutions per day: 14.78418686
mean anomaly at epoch: 229.2959°
orbit number at epoch: 31170

The dashed part of the orbit path shows where the satellite is in the earth's shadow,  

DLR